| time (UTC) | temp F | wind direction | speed knots | gust knots | rain 1hr in | rain 24hr in | rain mn in | humidity % | barometer mb |
| 20260507060355 | 51 | 122 | 0.9 | 1.7 | 0.00 | 0.01 | 0.01 | 95 | 1012.6 |
| 20260507055852 | 51 | 160 | 0.0 | 0.0 | 0.00 | 0.01 | 0.01 | 94 | 1012.5 |
| 20260507055347 | 51 | 153 | 0.9 | 2.6 | 0.05 | 0.01 | 0.01 | 93 | 1012.5 |
| 20260507054844 | 51 | 163 | 0.9 | 2.6 | 0.00 | 0.00 | 0.00 | 92 | 1012.4 |
| 20260507054340 | 51 | 170 | 0.9 | 4.3 | 0.00 | 0.00 | 0.00 | 91 | 1012.5 |
| 20260507053838 | 51 | 189 | 1.7 | 1.7 | 0.00 | 0.00 | 0.00 | 91 | 1012.3 |
| 20260507053335 | 51 | 161 | 0.9 | 6.1 | 0.00 | 0.00 | 0.00 | 90 | 1012.3 |
| 20260507052834 | 51 | 339 | 2.6 | 5.2 | 0.00 | 0.00 | 0.00 | 90 | 1012.3 |
| 20260507052330 | 51 | 148 | 0.9 | 2.6 | 0.00 | 0.00 | 0.00 | 90 | 1012.3 |
| 20260507051828 | 51 | 68 | 1.7 | 5.2 | 0.00 | 0.00 | 0.00 | 89 | 1012.3 |
| 20260507051326 | 51 | 246 | 2.6 | 4.3 | 0.00 | 0.00 | 0.00 | 90 | 1012.4 |
| 20260507050822 | 51 | 194 | 1.7 | 2.6 | 0.00 | 0.00 | 0.00 | 90 | 1012.3 |
| 20260507050319 | 51 | 315 | 1.7 | 2.6 | 0.00 | 0.00 | 0.00 | 90 | 1012.5 |
| 20260507045816 | 51 | 271 | 1.7 | 4.3 | 0.00 | 0.00 | 0.00 | 91 | 1012.3 |
| 20260507045312 | 51 | 174 | 0.9 | 1.7 | 0.00 | 0.00 | 0.00 | 91 | 1012.1 |
| 20260507044809 | 51 | 147 | 0.9 | 1.7 | 0.00 | 0.00 | 0.00 | 91 | 1012.8 |
| 20260507044306 | 51 | 225 | 3.5 | 4.3 | 0.00 | 0.00 | 0.00 | 90 | 1012.6 |
| 20260507043802 | 51 | 175 | 0.9 | 2.6 | 0.00 | 0.00 | 0.00 | 90 | 1012.5 |
| 20260507043258 | 51 | 146 | 0.0 | 1.7 | 0.00 | 0.00 | 0.00 | 89 | 1012.0 |
| 20260507042755 | 51 | 189 | 1.7 | 1.7 | 0.00 | 0.00 | 0.00 | 89 | 1012.1 |
| 20260507042250 | 51 | 154 | 0.0 | 4.3 | 0.00 | 0.00 | 0.00 | 88 | 1012.4 |
| 20260507041748 | 51 | 181 | 1.7 | 2.6 | 0.00 | 0.00 | 0.00 | 89 | 1012.5 |
| 20260507041244 | 51 | 150 | 0.9 | 4.3 | 0.00 | 0.00 | 0.00 | 89 | 1012.3 |
| 20260507040741 | 51 | 153 | 0.9 | 4.3 | 0.00 | 0.00 | 0.00 | 89 | 1012.4 |
| 20260507040237 | 51 | 258 | 2.6 | 5.2 | 0.00 | 0.00 | 0.00 | 89 | 1011.9 |
| 20260507035733 | 51 | 326 | 2.6 | 2.6 | 0.00 | 0.36 | 0.36 | 90 | 1011.9 |
| 20260507035229 | 51 | 118 | 0.9 | 2.6 | 0.00 | 0.36 | 0.36 | 90 | 1011.6 |
| 20260507034727 | 51 | 326 | 6.1 | 7.8 | 0.00 | 0.36 | 0.36 | 91 | 1011.7 |
| 20260507034223 | 51 | 75 | 1.7 | 2.6 | 0.00 | 0.36 | 0.36 | 91 | 1011.8 |
| 20260507033722 | 51 | 129 | 0.0 | 0.0 | 0.00 | 0.36 | 0.36 | 92 | 1011.8 |
| 20260507033219 | 51 | 95 | 0.9 | 1.7 | 0.00 | 0.36 | 0.36 | 92 | 1011.7 |
| 20260507032716 | 51 | 149 | 0.9 | 2.6 | 0.00 | 0.36 | 0.36 | 91 | 1012.2 |
| 20260507032212 | 51 | 169 | 0.9 | 4.3 | 0.00 | 0.36 | 0.36 | 90 | 1012.4 |
| 20260507031709 | 51 | 285 | 3.5 | 4.3 | 0.00 | 0.36 | 0.36 | 91 | 1012.2 |
| 20260507031206 | 51 | 79 | 0.9 | 4.3 | 0.00 | 0.36 | 0.36 | 91 | 1012.2 |
| 20260507030702 | 51 | 80 | 1.7 | 6.1 | 0.00 | 0.36 | 0.36 | 90 | 1012.1 |
| 20260507030200 | 51 | 152 | 0.9 | 2.6 | 0.00 | 0.36 | 0.36 | 91 | 1012.0 |
| 20260507025657 | 51 | 21 | 4.3 | 8.7 | 0.00 | 0.36 | 0.36 | 91 | 1012.0 |
| 20260507025154 | 51 | 69 | 2.6 | 4.3 | 0.00 | 0.36 | 0.36 | 92 | 1011.9 |
| 20260507024652 | 52 | 210 | 3.5 | 4.3 | 0.00 | 0.36 | 0.36 | 92 | 1011.9 |
| 20260507024149 | 52 | 138 | 0.9 | 4.3 | 0.00 | 0.36 | 0.36 | 92 | 1012.0 |
| 20260507023644 | 52 | 22 | 3.5 | 7.0 | 0.00 | 0.36 | 0.36 | 92 | 1011.7 |
| 20260507023142 | 52 | 58 | 3.5 | 5.2 | 0.00 | 0.36 | 0.36 | 92 | 1011.7 |
| 20260507022639 | 52 | 93 | 2.6 | 4.3 | 0.00 | 0.36 | 0.36 | 92 | 1011.6 |
| 20260507022134 | 52 | 197 | 0.9 | 1.7 | 0.00 | 0.36 | 0.36 | 93 | 1011.8 |
| 20260507021631 | 52 | 212 | 2.6 | 2.6 | 0.00 | 0.36 | 0.36 | 93 | 1012.1 |
| 20260507021126 | 53 | 127 | 0.9 | 2.6 | 0.00 | 0.36 | 0.36 | 93 | 1012.1 |
| 20260507020625 | 53 | 54 | 0.9 | 2.6 | 0.00 | 0.36 | 0.36 | 93 | 1012.1 |
| 20260507020121 | 53 | 95 | 1.7 | 4.3 | 0.00 | 0.36 | 0.36 | 92 | 1012.0 |
| 20260507015620 | 53 | 133 | 0.0 | 1.7 | 0.00 | 0.36 | 0.36 | 93 | 1012.0 |
| 20260507015117 | 53 | 165 | 0.9 | 1.7 | 0.00 | 0.36 | 0.36 | 92 | 1012.2 |
| 20260507014613 | 53 | 218 | 2.6 | 2.6 | 0.00 | 0.36 | 0.36 | 92 | 1011.9 |
| 20260507014109 | 53 | 158 | 0.0 | 4.3 | 0.00 | 0.36 | 0.36 | 91 | 1012.1 |
| 20260507013606 | 53 | 155 | 0.0 | 2.6 | 0.00 | 0.36 | 0.36 | 92 | 1012.1 |
| 20260507013103 | 53 | 307 | 2.6 | 4.3 | 0.00 | 0.36 | 0.36 | 92 | 1012.1 |
| 20260507012600 | 54 | 153 | 0.9 | 4.3 | 0.00 | 0.36 | 0.36 | 92 | 1012.2 |
| 20260507012055 | 54 | 147 | 2.6 | 5.2 | 0.00 | 0.36 | 0.36 | 92 | 1012.1 |
| 20260507011554 | 54 | 152 | 2.6 | 4.3 | 0.00 | 0.36 | 0.36 | 92 | 1011.7 |
| 20260507011050 | 54 | 156 | 0.0 | 6.1 | 0.00 | 0.36 | 0.36 | 93 | 1011.8 |
| 20260507010544 | 54 | 158 | 1.7 | 4.3 | 0.00 | 0.36 | 0.36 | 95 | 1012.0 |
| 20260507010040 | 54 | 141 | 0.0 | 0.9 | 0.00 | 0.36 | 0.36 | 95 | 1011.9 |
| 20260507005538 | 54 | 121 | 0.0 | 0.9 | 0.00 | 0.36 | 0.36 | 95 | 1012.0 |
| 20260507005029 | 55 | 126 | 0.0 | 2.6 | 0.00 | 0.36 | 0.36 | 95 | 1011.7 |
| 20260507004526 | 55 | 114 | 0.9 | 2.6 | 0.00 | 0.36 | 0.36 | 96 | 1011.5 |
| 20260507004024 | 55 | 145 | 0.0 | 0.0 | 0.00 | 0.36 | 0.36 | 96 | 1011.4 |
| 20260507003519 | 55 | 35 | 0.0 | 1.7 | 0.00 | 0.36 | 0.36 | 97 | 1011.3 |
| 20260507003014 | 55 | 156 | 0.9 | 0.9 | 0.00 | 0.36 | 0.36 | 96 | 1011.1 |
| 20260507002511 | 55 | 128 | 0.9 | 0.9 | 0.00 | 0.36 | 0.36 | 97 | 1011.1 |
| 20260507002007 | 56 | 145 | 0.0 | 0.9 | 0.00 | 0.36 | 0.36 | 96 | 1011.1 |
| 20260507001504 | 56 | 174 | 0.9 | 5.2 | 0.00 | 0.36 | 0.36 | 96 | 1010.7 |
| 20260507001001 | 56 | 141 | 0.0 | 1.7 | 0.00 | 0.36 | 0.36 | 96 | 1010.5 |
| 20260507000457 | 56 | 137 | 0.0 | 2.6 | 0.00 | 0.36 | 0.36 | 96 | 1010.4 |
| 20260506235952 | 57 | 25 | 1.7 | 6.1 | 0.00 | 0.36 | 0.36 | 96 | 1010.5 |
| 20260506235450 | 57 | 41 | 5.2 | 6.1 | 0.00 | 0.36 | 0.36 | 96 | 1010.2 |
| 20260506234946 | 57 | 34 | 4.3 | 6.1 | 0.00 | 0.36 | 0.36 | 96 | 1009.9 |
| 20260506234444 | 58 | 41 | 2.6 | 4.3 | 0.00 | 0.36 | 0.36 | 96 | 1009.8 |
| 20260506233941 | 59 | 349 | 2.6 | 6.1 | 0.00 | 0.36 | 0.36 | 95 | 1009.8 |
| 20260506233437 | 59 | 320 | 7.0 | 9.6 | 0.00 | 0.36 | 0.36 | 94 | 1009.6 |
| 20260506232934 | 60 | 27 | 1.7 | 5.2 | 0.00 | 0.36 | 0.36 | 97 | 1009.4 |
| 20260506232430 | 61 | 138 | 1.7 | 4.3 | 0.00 | 0.36 | 0.36 | 97 | 1009.1 |
| 20260506231926 | 61 | 175 | 2.6 | 4.3 | 0.00 | 0.36 | 0.36 | 97 | 1009.1 |
| 20260506231424 | 61 | 187 | 2.6 | 4.3 | 0.00 | 0.36 | 0.36 | 98 | 1009.1 |
| 20260506230921 | 61 | 260 | 4.3 | 5.2 | 0.00 | 0.36 | 0.36 | 97 | 1009.2 |
| 20260506230417 | 62 | 221 | 1.7 | 5.2 | 0.00 | 0.36 | 0.36 | 97 | 1009.3 |
| 20260506225914 | 62 | 223 | 3.5 | 5.2 | 0.00 | 0.36 | 0.36 | 96 | 1009.1 |
| 20260506225411 | 62 | 236 | 3.5 | 5.2 | 0.00 | 0.36 | 0.36 | 96 | 1009.1 |
| 20260506224908 | 61 | 241 | 1.7 | 7.0 | 0.00 | 0.36 | 0.36 | 96 | 1009.0 |
| 20260506224406 | 61 | 213 | 2.6 | 11.3 | 0.00 | 0.36 | 0.36 | 96 | 1008.9 |
| 20260506223901 | 61 | 204 | 2.6 | 5.2 | 0.00 | 0.36 | 0.36 | 99 | 1008.8 |
| 20260506223357 | 62 | 171 | 0.9 | 2.6 | 0.00 | 0.36 | 0.36 | 99 | 1008.9 |
| 20260506222854 | 62 | 187 | 1.7 | 5.2 | 0.00 | 0.36 | 0.36 | 99 | 1008.7 |
| 20260506222350 | 62 | 224 | 2.6 | 4.3 | 0.00 | 0.36 | 0.36 | 99 | 1009.0 |
| 20260506221848 | 62 | 184 | 1.7 | 2.6 | 0.00 | 0.36 | 0.36 | 99 | 1009.0 |
| 20260506221345 | 62 | 161 | 0.9 | 2.6 | 0.00 | 0.36 | 0.36 | 99 | 1008.8 |
| 20260506220842 | 62 | 184 | 1.7 | 2.6 | 0.00 | 0.36 | 0.36 | 99 | 1008.6 |
| 20260506220338 | 62 | 175 | 1.7 | 2.6 | 0.00 | 0.36 | 0.36 | 99 | 1008.4 |
| 20260506215835 | 62 | 217 | 2.6 | 6.1 | 0.00 | 0.36 | 0.36 | 99 | 1008.4 |
| 20260506215331 | 62 | 205 | 2.6 | 4.3 | 0.00 | 0.36 | 0.36 | 99 | 1008.4 |
| 20260506214827 | 62 | 230 | 1.7 | 2.6 | 0.00 | 0.36 | 0.36 | 99 | 1008.4 |
| 20260506214323 | 62 | 169 | 0.9 | 1.7 | 0.00 | 0.36 | 0.36 | 99 | 1008.2 |
| 20260506213822 | 62 | 160 | 0.9 | 1.7 | 0.00 | 0.36 | 0.36 | 99 | 1008.2 |
| 20260506213319 | 62 | 155 | 0.9 | 1.7 | 0.00 | 0.36 | 0.36 | 99 | 1008.2 |
| 20260506212816 | 62 | 208 | 2.6 | 4.3 | 0.07 | 0.36 | 0.36 | 99 | 1008.1 |
| 20260506212312 | 63 | 199 | 2.6 | 2.6 | 0.12 | 0.36 | 0.36 | 99 | 1008.0 |
| 20260506211807 | 63 | 193 | 1.7 | 2.6 | 0.05 | 0.35 | 0.35 | 97 | 1007.9 |
| 20260506211303 | 64 | 129 | 0.0 | 1.7 | 0.00 | 0.34 | 0.34 | 96 | 1007.8 |
| 20260506210801 | 64 | 352 | 2.6 | 4.3 | 0.00 | 0.34 | 0.34 | 95 | 1007.8 |
| 20260506210257 | 64 | 137 | 1.7 | 4.3 | 0.00 | 0.34 | 0.34 | 95 | 1007.7 |
| 20260506205755 | 64 | 185 | 0.9 | 2.6 | 0.00 | 0.34 | 0.34 | 94 | 1007.6 |
| 20260506205250 | 64 | 149 | 0.9 | 2.6 | 0.00 | 0.34 | 0.34 | 94 | 1007.6 |
| 20260506204747 | 64 | 202 | 2.6 | 5.2 | 0.00 | 0.34 | 0.34 | 93 | 1007.6 |
| 20260506204245 | 64 | 218 | 3.5 | 6.1 | 0.00 | 0.34 | 0.34 | 93 | 1007.4 |
| 20260506203742 | 64 | 232 | 3.5 | 6.1 | 0.00 | 0.34 | 0.34 | 93 | 1007.5 |
| 20260506203239 | 65 | 226 | 5.2 | 7.0 | 0.00 | 0.34 | 0.34 | 92 | 1007.4 |
| 20260506202737 | 65 | 245 | 7.8 | 9.6 | 0.00 | 0.34 | 0.34 | 92 | 1007.5 |
| 20260506202233 | 65 | 210 | 3.5 | 4.3 | 0.00 | 0.34 | 0.34 | 94 | 1007.3 |
| 20260506201730 | 65 | 230 | 3.5 | 7.0 | 0.00 | 0.34 | 0.34 | 93 | 1007.4 |
| 20260506201227 | 65 | 253 | 1.7 | 4.3 | 0.00 | 0.34 | 0.34 | 93 | 1007.4 |
| 20260506200724 | 64 | 210 | 3.5 | 7.0 | 0.00 | 0.34 | 0.34 | 94 | 1007.4 |
| 20260506200220 | 64 | 233 | 2.6 | 5.2 | 0.00 | 0.34 | 0.34 | 95 | 1007.5 |
| 20260506195716 | 64 | 168 | 0.9 | 4.3 | 0.00 | 0.34 | 0.34 | 95 | 1007.7 |
| 20260506195213 | 64 | 224 | 3.5 | 7.0 | 0.00 | 0.34 | 0.34 | 95 | 1007.6 |
| 20260506194705 | 64 | 207 | 2.6 | 6.1 | 0.00 | 0.34 | 0.34 | 96 | 1007.7 |
| 20260506194201 | 64 | 252 | 2.6 | 4.3 | 0.00 | 0.34 | 0.34 | 97 | 1007.8 |
| 20260506193659 | 63 | 206 | 3.5 | 5.2 | 0.00 | 0.34 | 0.34 | 96 | 1007.6 |
| 20260506193155 | 63 | 191 | 2.6 | 4.3 | 0.00 | 0.34 | 0.34 | 97 | 1007.8 |
| 20260506192652 | 63 | 216 | 5.2 | 7.0 | 0.00 | 0.34 | 0.34 | 96 | 1007.7 |
| 20260506192149 | 63 | 227 | 2.6 | 6.1 | 0.00 | 0.34 | 0.34 | 96 | 1007.8 |
| 20260506191646 | 63 | 232 | 4.3 | 7.8 | 0.00 | 0.34 | 0.34 | 96 | 1007.6 |
| 20260506191142 | 63 | 206 | 6.1 | 7.8 | 0.00 | 0.34 | 0.34 | 96 | 1007.9 |
| 20260506190639 | 63 | 192 | 4.3 | 7.0 | 0.00 | 0.34 | 0.34 | 97 | 1007.8 |
| 20260506190136 | 62 | 209 | 4.3 | 7.0 | 0.00 | 0.34 | 0.34 | 97 | 1008.1 |
| 20260506185633 | 62 | 183 | 4.3 | 5.2 | 0.00 | 0.34 | 0.34 | 99 | 1008.1 |
| 20260506185129 | 62 | 194 | 3.5 | 6.1 | 0.00 | 0.34 | 0.34 | 99 | 1008.0 |
| 20260506184626 | 61 | 232 | 4.3 | 6.1 | 0.00 | 0.34 | 0.34 | 99 | 1008.1 |
| 20260506184124 | 61 | 214 | 2.6 | 7.8 | 0.00 | 0.34 | 0.34 | 99 | 1008.1 |
| 20260506183620 | 61 | 139 | 0.9 | 5.2 | 0.00 | 0.34 | 0.34 | 99 | 1008.1 |
| 20260506183116 | 62 | 161 | 1.7 | 2.6 | 0.00 | 0.34 | 0.34 | 99 | 1008.1 |
| 20260506182614 | 61 | 159 | 0.0 | 2.6 | 0.00 | 0.34 | 0.34 | 99 | 1008.2 |
| 20260506182111 | 61 | 73 | 1.7 | 5.2 | 0.00 | 0.34 | 0.34 | 99 | 1008.2 |
| 20260506181609 | 61 | 230 | 2.6 | 2.6 | 0.00 | 0.34 | 0.34 | 99 | 1008.0 |
| 20260506181106 | 60 | 144 | 0.0 | 0.9 | 0.00 | 0.34 | 0.34 | 99 | 1008.1 |
| 20260506180602 | 60 | 149 | 0.9 | 1.7 | 0.00 | 0.34 | 0.34 | 99 | 1008.5 |
| 20260506180059 | 60 | 86 | 1.7 | 1.7 | 0.07 | 0.34 | 0.34 | 99 | 1008.4 |
| 20260506175555 | 60 | 249 | 0.9 | 1.7 | 0.00 | 0.33 | 0.33 | 99 | 1008.8 |
| 20260506175051 | 60 | 127 | 0.0 | 0.0 | 0.00 | 0.33 | 0.33 | 99 | 1008.7 |
| 20260506174550 | 60 | 137 | 0.0 | 0.9 | 0.00 | 0.33 | 0.33 | 99 | 1008.5 |
| 20260506174046 | 60 | 106 | 0.9 | 1.7 | 0.05 | 0.33 | 0.33 | 99 | 1008.6 |
| 20260506173544 | 60 | 113 | 0.9 | 1.7 | 0.05 | 0.33 | 0.33 | 99 | 1008.4 |
| 20260506173040 | 60 | 135 | 0.0 | 0.9 | 0.00 | 0.32 | 0.32 | 99 | 1008.5 |
| 20260506172538 | 60 | 156 | 0.9 | 0.9 | 0.07 | 0.32 | 0.32 | 99 | 1008.6 |
| 20260506172034 | 60 | 192 | 0.9 | 1.7 | 0.07 | 0.32 | 0.32 | 99 | 1008.2 |
| 20260506171531 | 60 | 171 | 0.9 | 1.7 | 0.05 | 0.31 | 0.31 | 99 | 1008.4 |
| 20260506171029 | 60 | 148 | 0.9 | 4.3 | 0.05 | 0.31 | 0.31 | 99 | 1008.6 |
| 20260506170526 | 60 | 185 | 1.7 | 6.1 | 0.07 | 0.30 | 0.30 | 99 | 1008.5 |
| 20260506170018 | 60 | 209 | 4.3 | 5.2 | 0.05 | 0.29 | 0.29 | 99 | 1008.5 |
| 20260506165516 | 60 | 195 | 5.2 | 8.7 | 0.12 | 0.29 | 0.29 | 99 | 1008.6 |
| 20260506165012 | 60 | 240 | 6.1 | 8.7 | 0.12 | 0.28 | 0.28 | 99 | 1008.4 |
| 20260506164509 | 60 | 200 | 6.1 | 8.7 | 0.05 | 0.27 | 0.27 | 99 | 1008.4 |
| 20260506164007 | 60 | 225 | 7.0 | 9.6 | 0.00 | 0.26 | 0.26 | 97 | 1008.2 |
| 20260506163502 | 60 | 222 | 5.2 | 13.0 | 0.00 | 0.26 | 0.26 | 98 | 1008.5 |
| 20260506162956 | 60 | 224 | 6.1 | 8.7 | 0.00 | 0.26 | 0.26 | 98 | 1008.5 |
| 20260506162455 | 60 | 213 | 4.3 | 7.0 | 0.00 | 0.26 | 0.26 | 98 | 1008.7 |
| 20260506161951 | 60 | 216 | 8.7 | 9.6 | 0.00 | 0.26 | 0.26 | 98 | 1008.6 |
| 20260506161449 | 60 | 194 | 9.6 | 14.8 | 0.00 | 0.26 | 0.26 | 97 | 1008.7 |
| 20260506160947 | 60 | 211 | 11.3 | 17.4 | 0.00 | 0.26 | 0.26 | 97 | 1008.5 |
| 20260506160444 | 60 | 208 | 7.0 | 13.9 | 0.00 | 0.26 | 0.26 | 98 | 1008.6 |
| 20260506155941 | 60 | 213 | 7.0 | 13.9 | 0.00 | 0.26 | 0.26 | 98 | 1008.5 |
| 20260506155438 | 60 | 229 | 10.4 | 14.8 | 0.00 | 0.26 | 0.26 | 98 | 1008.1 |
| 20260506153605 | 60 | 197 | 6.1 | 13.9 | 0.07 | 0.26 | 0.26 | 99 | 1007.9 |
| 20260506153103 | 60 | 154 | 9.6 | 13.9 | 0.07 | 0.26 | 0.26 | 99 | 1007.9 |
| 20260506152559 | 60 | 190 | 6.1 | 11.3 | 0.00 | 0.25 | 0.25 | 99 | 1008.1 |
| 20260506152057 | 60 | 207 | 7.8 | 13.9 | 0.07 | 0.25 | 0.25 | 99 | 1008.1 |
| 20260506151555 | 60 | 170 | 10.4 | 13.9 | 0.12 | 0.25 | 0.25 | 99 | 1008.1 |
| 20260506151052 | 60 | 156 | 6.1 | 9.6 | 0.12 | 0.24 | 0.24 | 99 | 1008.1 |
| 20260506150548 | 60 | 170 | 4.3 | 13.9 | 0.12 | 0.23 | 0.23 | 99 | 1008.2 |
| 20260506150045 | 60 | 194 | 5.2 | 12.2 | 0.17 | 0.22 | 0.22 | 99 | 1008.1 |
| 20260506145542 | 60 | 187 | 6.1 | 13.0 | 0.24 | 0.21 | 0.21 | 99 | 1008.6 |
| 20260506145040 | 60 | 199 | 5.2 | 9.6 | 0.19 | 0.19 | 0.19 | 99 | 1008.8 |
| 20260506144536 | 60 | 175 | 2.6 | 11.3 | 0.12 | 0.17 | 0.17 | 99 | 1009.1 |
| 20260506144034 | 60 | 210 | 7.0 | 12.2 | 0.00 | 0.15 | 0.15 | 99 | 1008.9 |
| 20260506143531 | 60 | 222 | 9.6 | 13.0 | 0.07 | 0.15 | 0.15 | 98 | 1008.9 |
| 20260506143030 | 60 | 224 | 7.0 | 12.2 | 0.07 | 0.15 | 0.15 | 98 | 1009.0 |
| 20260506142527 | 60 | 244 | 7.0 | 12.2 | 0.00 | 0.14 | 0.14 | 99 | 1008.9 |
| 20260506142025 | 60 | 191 | 4.3 | 11.3 | 0.05 | 0.14 | 0.14 | 99 | 1008.6 |
| 20260506141522 | 60 | 175 | 4.3 | 7.0 | 0.05 | 0.14 | 0.14 | 99 | 1008.4 |
| 20260506141021 | 60 | 209 | 4.3 | 7.0 | 0.07 | 0.13 | 0.13 | 98 | 1008.6 |
| 20260506140517 | 60 | 200 | 4.3 | 9.6 | 0.14 | 0.13 | 0.13 | 98 | 1008.5 |
| 20260506140015 | 60 | 220 | 3.5 | 7.8 | 0.12 | 0.12 | 0.12 | 98 | 1008.5 |
| 20260506135512 | 60 | 141 | 2.6 | 7.0 | 0.12 | 0.11 | 0.11 | 98 | 1008.7 |
| 20260506135008 | 60 | 227 | 5.2 | 7.8 | 0.07 | 0.10 | 0.10 | 97 | 1008.5 |
| 20260506134504 | 60 | 248 | 1.7 | 7.0 | 0.00 | 0.09 | 0.09 | 97 | 1008.8 |
| 20260506134000 | 60 | 254 | 2.6 | 6.1 | 0.05 | 0.09 | 0.09 | 97 | 1008.6 |
| 20260506133458 | 60 | 206 | 2.6 | 6.1 | 0.05 | 0.09 | 0.09 | 97 | 1009.0 |
| 20260506132954 | 60 | 161 | 4.3 | 7.8 | 0.00 | 0.08 | 0.08 | 96 | 1008.9 |
| 20260506132451 | 60 | 220 | 3.5 | 9.6 | 0.00 | 0.08 | 0.08 | 95 | 1008.9 |
| 20260506131949 | 60 | 231 | 10.4 | 13.0 | 0.00 | 0.08 | 0.08 | 96 | 1008.9 |
| 20260506131445 | 60 | 140 | 10.4 | 12.2 | 0.07 | 0.08 | 0.08 | 96 | 1008.8 |
| 20260506130942 | 59 | 234 | 4.3 | 7.0 | 0.07 | 0.08 | 0.08 | 99 | 1009.2 |
| 20260506130439 | 59 | 223 | 3.5 | 7.0 | 0.00 | 0.07 | 0.07 | 99 | 1009.1 |
| 20260506125937 | 59 | 171 | 1.7 | 6.1 | 0.00 | 0.07 | 0.07 | 99 | 1008.9 |
| 20260506125435 | 59 | 190 | 2.6 | 6.1 | 0.05 | 0.07 | 0.07 | 99 | 1008.9 |
| 20260506124933 | 60 | 192 | 6.1 | 8.7 | 0.12 | 0.07 | 0.07 | 95 | 1009.2 |
| 20260506124430 | 60 | 200 | 7.0 | 12.2 | 0.07 | 0.06 | 0.06 | 94 | 1009.0 |
| 20260506123928 | 60 | 190 | 7.0 | 12.2 | 0.05 | 0.05 | 0.05 | 93 | 1009.2 |
| 20260506123426 | 60 | 221 | 5.2 | 11.3 | 0.07 | 0.04 | 0.04 | 93 | 1009.2 |
| 20260506122923 | 60 | 227 | 6.1 | 8.7 | 0.07 | 0.04 | 0.04 | 93 | 1009.2 |
| 20260506122419 | 60 | 204 | 4.3 | 9.6 | 0.05 | 0.03 | 0.03 | 93 | 1009.3 |
| 20260506121918 | 61 | 191 | 4.3 | 8.7 | 0.05 | 0.03 | 0.03 | 91 | 1009.3 |
| 20260506121414 | 61 | 204 | 7.8 | 12.2 | 0.07 | 0.02 | 0.02 | 90 | 1009.3 |
| 20260506120911 | 61 | 217 | 7.0 | 11.3 | 0.05 | 0.01 | 0.01 | 89 | 1009.3 |
| 20260506120409 | 62 | 155 | 6.1 | 8.7 | 0.05 | 0.01 | 0.01 | 88 | 1009.4 |
| 20260506115906 | 62 | 225 | 6.1 | 9.6 | 0.00 | 0.00 | 0.00 | 85 | 1009.3 |
| 20260506115404 | 62 | 242 | 7.0 | 7.8 | 0.00 | 0.00 | 0.00 | 83 | 1009.0 |
| 20260506114902 | 63 | 169 | 7.8 | 11.3 | 0.00 | 0.00 | 0.00 | 83 | 1009.2 |
| 20260506114359 | 63 | 198 | 5.2 | 8.7 | 0.00 | 0.00 | 0.00 | 81 | 1008.9 |
| 20260506113858 | 63 | 149 | 5.2 | 9.6 | 0.00 | 0.00 | 0.00 | 82 | 1008.6 |
| 20260506113355 | 63 | 178 | 7.8 | 9.6 | 0.00 | 0.00 | 0.00 | 81 | 1008.5 |
| 20260506112851 | 63 | 155 | 4.3 | 8.7 | 0.00 | 0.00 | 0.00 | 81 | 1008.6 |
| 20260506112349 | 63 | 231 | 7.0 | 9.6 | 0.00 | 0.00 | 0.00 | 82 | 1008.6 |
| 20260506111846 | 63 | 184 | 4.3 | 11.3 | 0.00 | 0.00 | 0.00 | 79 | 1008.4 |
| 20260506111344 | 64 | 201 | 9.6 | 15.6 | 0.00 | 0.00 | 0.00 | 79 | 1008.5 |
| 20260506110841 | 64 | 194 | 9.6 | 11.3 | 0.00 | 0.00 | 0.00 | 78 | 1008.5 |
| 20260506110338 | 64 | 187 | 7.0 | 13.0 | 0.00 | 0.00 | 0.00 | 76 | 1008.5 |
| 20260506105835 | 64 | 137 | 5.2 | 13.0 | 0.00 | 0.00 | 0.00 | 75 | 1008.6 |
| 20260506105332 | 65 | 199 | 7.8 | 15.6 | 0.00 | 0.00 | 0.00 | 72 | 1008.5 |
| 20260506104830 | 65 | 209 | 7.8 | 14.8 | 0.00 | 0.00 | 0.00 | 72 | 1008.1 |
| 20260506104327 | 65 | 194 | 5.2 | 15.6 | 0.00 | 0.00 | 0.00 | 72 | 1008.1 |
| 20260506103824 | 66 | 165 | 8.7 | 15.6 | 0.00 | 0.00 | 0.00 | 70 | 1007.8 |
| 20260506103322 | 65 | 168 | 7.8 | 12.2 | 0.00 | 0.00 | 0.00 | 70 | 1007.9 |
| 20260506102819 | 66 | 136 | 5.2 | 11.3 | 0.00 | 0.00 | 0.00 | 70 | 1007.9 |
| 20260506102317 | 66 | 232 | 7.8 | 13.0 | 0.00 | 0.00 | 0.00 | 69 | 1007.9 |
| 20260506101814 | 66 | 160 | 8.7 | 13.9 | 0.00 | 0.00 | 0.00 | 69 | 1007.7 |
| 20260506101310 | 66 | 184 | 6.1 | 8.7 | 0.00 | 0.00 | 0.00 | 70 | 1007.9 |
| 20260506100808 | 66 | 191 | 7.0 | 8.7 | 0.00 | 0.00 | 0.00 | 70 | 1007.6 |
| 20260506100306 | 66 | 186 | 6.1 | 13.0 | 0.00 | 0.00 | 0.00 | 68 | 1007.7 |
| 20260506095804 | 66 | 174 | 7.8 | 13.9 | 0.00 | 0.00 | 0.00 | 69 | 1007.5 |
| 20260506095301 | 66 | 191 | 4.3 | 9.6 | 0.00 | 0.00 | 0.00 | 67 | 1007.6 |
| 20260506094757 | 66 | 198 | 3.5 | 8.7 | 0.00 | 0.00 | 0.00 | 68 | 1007.9 |
| 20260506094256 | 66 | 174 | 4.3 | 7.0 | 0.00 | 0.00 | 0.00 | 68 | 1007.8 |
| 20260506093754 | 66 | 162 | 3.5 | 6.1 | 0.00 | 0.00 | 0.00 | 67 | 1008.0 |
| 20260506093251 | 67 | 180 | 4.3 | 13.0 | 0.00 | 0.00 | 0.00 | 66 | 1008.0 |
| 20260506092749 | 67 | 166 | 7.0 | 14.8 | 0.00 | 0.00 | 0.00 | 65 | 1008.0 |
| 20260506092246 | 67 | 211 | 6.1 | 8.7 | 0.00 | 0.00 | 0.00 | 65 | 1008.2 |
| 20260506091743 | 67 | 190 | 7.8 | 14.8 | 0.00 | 0.00 | 0.00 | 64 | 1008.2 |
| 20260506091241 | 67 | 185 | 2.6 | 6.1 | 0.00 | 0.00 | 0.00 | 64 | 1008.2 |
| 20260506090739 | 67 | 168 | 5.2 | 9.6 | 0.00 | 0.00 | 0.00 | 63 | 1008.1 |
| 20260506090235 | 67 | 191 | 5.2 | 7.0 | 0.00 | 0.00 | 0.00 | 64 | 1008.4 |
| 20260506085732 | 67 | 159 | 7.8 | 11.3 | 0.00 | 0.00 | 0.00 | 63 | 1008.2 |
| 20260506085228 | 68 | 208 | 5.2 | 9.6 | 0.00 | 0.00 | 0.00 | 63 | 1008.4 |
| 20260506084726 | 68 | 182 | 4.3 | 7.0 | 0.00 | 0.00 | 0.00 | 63 | 1008.1 |
| 20260506084221 | 68 | 197 | 8.7 | 14.8 | 0.00 | 0.00 | 0.00 | 62 | 1008.0 |
| 20260506083719 | 68 | 228 | 13.0 | 15.6 | 0.00 | 0.00 | 0.00 | 61 | 1008.2 |
| 20260506083216 | 68 | 197 | 4.3 | 11.3 | 0.00 | 0.00 | 0.00 | 62 | 1008.2 |
| 20260506082714 | 68 | 155 | 8.7 | 11.3 | 0.00 | 0.00 | 0.00 | 61 | 1008.5 |
| 20260506082209 | 68 | 178 | 4.3 | 11.3 | 0.00 | 0.00 | 0.00 | 61 | 1008.0 |
| 20260506081707 | 68 | 189 | 9.6 | 13.0 | 0.00 | 0.00 | 0.00 | 60 | 1008.0 |
| 20260506081204 | 68 | 215 | 7.8 | 15.6 | 0.00 | 0.00 | 0.00 | 60 | 1008.0 |
| 20260506080702 | 68 | 161 | 3.5 | 8.7 | 0.00 | 0.00 | 0.00 | 61 | 1008.0 |
| 20260506080158 | 68 | 202 | 5.2 | 15.6 | 0.00 | 0.00 | 0.00 | 60 | 1008.0 |
| 20260506073143 | 68 | 193 | 11.3 | 15.6 | 0.00 | 0.00 | 0.00 | 57 | 1008.0 |
| 20260506072639 | 68 | 142 | 7.0 | 14.8 | 0.00 | 0.00 | 0.00 | 57 | 1007.9 |
| 20260506072137 | 68 | 130 | 4.3 | 7.0 | 0.00 | 0.00 | 0.00 | 57 | 1008.1 |
| 20260506071634 | 68 | 212 | 6.1 | 13.0 | 0.00 | 0.00 | 0.00 | 57 | 1008.7 |
| 20260506071132 | 68 | 169 | 4.3 | 7.8 | 0.00 | 0.00 | 0.00 | 57 | 1008.5 |
| 20260506070628 | 68 | 190 | 10.4 | 13.0 | 0.00 | 0.00 | 0.00 | 56 | 1008.5 |
| 20260506070126 | 68 | 193 | 4.3 | 11.3 | 0.00 | 0.00 | 0.00 | 55 | 1008.6 |
| 20260506062103 | 69 | 191 | 3.5 | 9.6 | 0.00 | 0.00 | 0.00 | 52 | 1008.9 |
| 20260506061558 | 69 | 148 | 7.0 | 12.2 | 0.00 | 0.00 | 0.00 | 52 | 1009.0 |
| 20260506061056 | 69 | 194 | 7.8 | 13.9 | 0.00 | 0.00 | 0.00 | 51 | 1009.0 |